Orbital Elements at Epoch 2459000.5 (2020-May-31.0) TDB
Reference: JPL 14 (heliocentric ecliptic J2000)
Element | Value | Uncertainty (1-sigma) | Units |
e | .1843969622815813 | 4.034e-08 | |
a | 2.29581468249733 | 1.3945e-08 | au |
q | 1.872473429083369 | 9.9231e-08 | au |
i | 2.091623366448046 | 5.266e-06 | deg |
node | 65.83762062507927 | 0.00010463 | deg |
peri | 272.3574269151779 | 0.00010562 | deg |
M | 266.4193014370816 | 1.5752e-05 | deg |
tp | 2459330.783936739201 (2021-Apr-26.28393674) | 5.7106e-05 | TDB |
period | 1270.584843370977 3.48 | 1.1577e-05 3.17e-08 | d yr |
n | .2833340897132751 | 2.5815e-09 | deg/d |
Q | 2.719155935911291 | 1.6517e-08 | au |
|
| | Orbit Determination Parameters
Additional Information
|